Regional Weather Roundup
Issued by NWS

Home | Current Version | Previous Version | Text Only | Print | Product List | Glossary On
Versions: 1 2 3 4 5 6 7 8 9 10 11 12 13 14 15 16 17 18 19 20 21 22 23 24 25 26 27 28 29 30 31 32 33 34 35 36 37 38 39 40 41 42 43 44 45 46 47 48 49 50
000
ASUS44 KLIX 050612
RWRLA
LOUISIANA WEATHER ROUNDUP
NATIONAL WEATHER SERVICE NEW ORLEANS LA
100 AM CDT WED AUG 05 2015

NOTE: "FAIR" INDICATES FEW OR NO CLOUDS BELOW 12,000 FEET WITH NO
      SIGNIFICANT WEATHER AND/OR OBSTRUCTIONS TO VISIBILITY.
      SKY/WX - SKY CONDITION AND SIGNIFICANT WEATHER.
      TMP - AIR TEMPERATURE.    DP   - DEWPOINT TEMPERATURE.
      RH  - RELATIVE HUMIDITY.  PRES - PRESSURE.
      HX  - HEAT INDEX.         WCI  - WIND CHILL INDEX.

*  THESE STATIONS ARE NOT NWS OR FAA STATIONS AND ARE NOT UNDER
   NWS QUALITY CONTROL.

LAZ040-048-061>063-065-066-069-050700-
SOUTHEAST LOUISIANA

CITY           SKY/WX    TMP DP  RH WIND       PRES   REMARKS
N.O. AUDUBON     N/A     80  76  87 MISG        N/A
6HR MIN TEMP:  79; 6HR MAX TEMP:  88;

N.O. INTL ARPT PTCLDY    80  72  76 S8        30.00S
6HR MIN TEMP:  79; 6HR MAX TEMP:  89;

N.O. LAKEFRONT MOCLDY    81  73  76 SW10      30.01R
6HR MIN TEMP:  81; 6HR MAX TEMP:  86;

N.O. DOWNTOWN* CLOUDY    82  73  74 S3        30.02R
6HR MIN TEMP:  81; 6HR MAX TEMP:  86; 6HR PCP:  0.05;

RESERVE*       FAIR      81  74  80 CALM      30.00S
6HR MIN TEMP:  81; 6HR MAX TEMP:  89;

SLIDELL        MOCLDY    82  79  90 SE6       29.99S
6HR MIN TEMP:  80; 6HR MAX TEMP:  84;

BATON ROUGE    CLEAR     82  75  79 SW8       30.00R
6HR MIN TEMP:  82; 6HR MAX TEMP:  90;

BOOTHVILLE     LGT RAIN  85  78  80 SW13      30.01F HX  96
6HR MIN TEMP:  84; 6HR MAX TEMP:  86; 6HR PCP: TRACE;

BELLE CHASSE   MOCLDY    79  76  90 CALM      30.00F
6HR MIN TEMP:  77; 6HR MAX TEMP:  86;

BOGALUSA*        N/A     77  73  87 CALM      30.02R
6HR MIN TEMP:  77; 6HR MAX TEMP:  90;

GALLIANO*      CLOUDY    81  78  90 SW5       30.01S
6HR MIN TEMP:  80; 6HR MAX TEMP:  84;

NEW ROADS*     FAIR     N/A N/A N/A S3        30.00S
GONZALES*      FAIR      80  76  88 CALM      29.99S
6HR MIN TEMP:  79; 6HR MAX TEMP:  90;

HAMMOND*       CLEAR     79  75  89 CALM      30.02S
HOUMA*         CLOUDY    78  77  96 CALM      30.01S
6HR MIN TEMP:  75; 6HR MAX TEMP:  78;

PORT FOURCHON* CLEAR     84  77  79 SW9       30.02S

$$

LAZ041-044-053-054-050700-
SOUTHWEST LOUISIANA

CITY           SKY/WX    TMP DP  RH WIND       PRES   REMARKS
LAKE CHARLES   CLEAR     83  75  77 SW6       29.99S
6HR MIN TEMP:  82; 6HR MAX TEMP:  90;

LAFAYETTE      CLEAR     82  75  79 SW6       30.00S
6HR MIN TEMP:  82; 6HR MAX TEMP:  94;

PATTERSON      PTCLDY    79  73  83 CALM      30.02S
6HR MIN TEMP:  79; 6HR MAX TEMP:  86;

SALT POINT       N/A     86  78  77 MISG      29.99S HX  98
6HR MIN TEMP:  86; 6HR MAX TEMP:  88;

NEW IBERIA     CLEAR     79  75  87 SW3       30.01R
6HR MIN TEMP:  79; 6HR MAX TEMP:  91;

CHENAULT AIRPK CLEAR     83  76  79 SW6       29.99S
6HR MIN TEMP:  83; 6HR MAX TEMP:  91;


$$

LAZ027-028-050700-
CENTRAL LOUISIANA

CITY           SKY/WX    TMP DP  RH WIND       PRES   REMARKS
FORT POLK      CLEAR     81  75  80 SW7       29.98S
6HR MIN TEMP:  81; 6HR MAX TEMP:  95;

ALEXANDRIA INT CLEAR     82  74  76 SW5       29.97R
6HR MIN TEMP:  81; 6HR MAX TEMP:  93;

ALEXANDRIA     CLEAR     78  72  81 CALM      29.99R
6HR MIN TEMP:  77; 6HR MAX TEMP:  96;


$$

LAZ001-002-050700-
NORTHWEST LOUISIANA

CITY           SKY/WX    TMP DP  RH WIND       PRES   REMARKS
SHREVEPORT     MOCLDY    86  67  52 S7        29.95S
6HR MIN TEMP:  83; 6HR MAX TEMP:  97;

BARKSDALE AFB  MOCLDY    79  70  72 S5        29.95S
6HR MIN TEMP:  79; 6HR MAX TEMP:  96;

DTN SHREVEPORT MOCLDY    82  70  66 SE6       29.96S
6HR MIN TEMP:  82; 6HR MAX TEMP:  95;


$$

LAZ014-016-050700-
NORTHEAST LOUISIANA

CITY           SKY/WX    TMP DP  RH WIND       PRES   REMARKS
MONROE         PTCLDY    78  73  84 CALM      29.97S
6HR MIN TEMP:  78; 6HR MAX TEMP:  92;

TALLULAH       PTCLDY    76  73  91 CALM      29.98S
6HR MIN TEMP:  76; 6HR MAX TEMP:  89;


$$



USA.gov is the U.S. government's official web portal to all federal, state and local government web resources and services.